Change the Weather History Date:

Thursday, December 20, 2012

  Actual Average Record
Temperature  
Mean Temperature 3 °F -  
Max Temperature 15 °F 20 °F 30 °F (2010)
Min Temperature -9 °F 0 °F -9 °F (2012)
Degree Days  
Heating Degree Days 62    
Moisture  
Dew Point -    
Average Humidity    
Maximum Humidity    
Minimum Humidity    
Precipitation  
Precipitation 0.00 in - - ()
Sea Level Pressure  
Sea Level Pressure 30.20 in    
Wind  
Wind Speed 5 mph (South)    
Max Wind Speed 12 mph    
Max Gust Speed 20 mph    
Visibility 10 miles    
Events Snow    
Averages and records for this station are not official NWS values.
T = Trace of Precipitation, MM = Missing Value Source: NWS Daily Summary

Daily Weather History Graph

Daily Weather History Graph

Search for Another Location

Airport or City:

Trip Planner

Search our weather history database for the weather conditions in past years. The results will help you decide how hot, cold, wet, or windy it might be!

Date:

Astronomy

Dec. 20, 2012 Rise Set
Actual Time 7:58 AM MST 4:46 PM MST
Civil Twilight 7:24 AM MST 5:20 PM MST
Nautical Twilight 6:47 AM MST 5:57 PM MST
Astronomical Twilight 6:11 AM MST 6:32 PM MST
Moon 12:18 PM MST (12/20) 12:35 AM MST (12/20)
Length of Visible Light 9h 55m
Length of Day
8h 48m
First Quarter, 56% of the Moon is Illuminated
Dec 20
First Quarter
Dec 28
Full
Jan 4
Last Quarter
Jan 11
New
Jan 18
First Quarter

Hourly Weather History & Observations

Time (MST) Temp. Windchill Dew Point Humidity Pressure Visibility Wind Dir Wind Speed Gust Speed Precip Events Conditions
12:05 AM 12.2 °F 1.7 °F - N/A% 30.21 in 10.0 mi SSW 6.9 mph - N/A   Overcast
12:25 AM 12.2 °F 1.7 °F - N/A% 30.21 in 10.0 mi SW 6.9 mph - N/A Snow Light Snow
12:45 AM 12.2 °F 0.7 °F - N/A% 30.21 in 10.0 mi SW 8.1 mph - N/A   Overcast
1:05 AM 12.2 °F -1.8 °F - N/A% 30.21 in 10.0 mi SSW 11.5 mph 19.6 mph N/A   Overcast
1:25 AM 12.2 °F 2.9 °F - N/A% 30.21 in 8.0 mi South 5.8 mph - N/A Snow Light Snow
1:45 AM 12.2 °F 2.9 °F - N/A% 30.21 in 10.0 mi South 5.8 mph - N/A   Overcast
2:05 AM 12.2 °F 4.3 °F - N/A% 30.21 in 10.0 mi SSW 4.6 mph - N/A   Overcast
2:25 AM 12.2 °F 2.9 °F - N/A% 30.21 in 10.0 mi South 5.8 mph - N/A   Overcast
2:45 AM 12.2 °F 2.9 °F - N/A% 30.21 in 10.0 mi SSE 5.8 mph - N/A   Overcast
3:05 AM 12.2 °F 2.9 °F - N/A% 30.21 in 10.0 mi South 5.8 mph - N/A   Overcast
3:25 AM 12.2 °F 1.7 °F - N/A% 30.20 in 10.0 mi SSW 6.9 mph - N/A   Overcast
3:45 AM 12.2 °F -0.2 °F - N/A% 30.20 in 10.0 mi South 9.2 mph - N/A   Mostly Cloudy
4:05 AM 12.2 °F -1.0 °F - N/A% 30.20 in 10.0 mi SSW 10.4 mph - N/A   Overcast
4:25 AM 10.4 °F -1.5 °F - N/A% 30.21 in 10.0 mi SSE 8.1 mph - N/A   Overcast
4:45 AM 10.4 °F -1.5 °F - N/A% 30.21 in 10.0 mi South 8.1 mph - N/A   Overcast
5:05 AM 10.4 °F -0.4 °F - N/A% 30.21 in 10.0 mi SSW 6.9 mph - N/A   Overcast
5:25 AM 10.4 °F 2.2 °F - N/A% 30.21 in 10.0 mi South 4.6 mph - N/A   Mostly Cloudy
5:45 AM 10.4 °F 0.8 °F - N/A% 30.21 in 10.0 mi SSW 5.8 mph - N/A   Mostly Cloudy
6:05 AM 8.6 °F -1.3 °F - N/A% 30.21 in 10.0 mi South 5.8 mph - N/A   Mostly Cloudy
6:25 AM 8.6 °F -2.6 °F - N/A% 30.22 in 10.0 mi SSW 6.9 mph - N/A   Overcast
6:45 AM 8.6 °F -2.6 °F - N/A% 30.23 in 10.0 mi South 6.9 mph - N/A   Overcast
7:05 AM 8.6 °F -2.6 °F - N/A% 30.23 in 10.0 mi South 6.9 mph - N/A   Overcast
7:25 AM 8.6 °F -1.3 °F - N/A% 30.23 in 10.0 mi South 5.8 mph - N/A   Overcast
7:45 AM 8.6 °F - - N/A% 30.23 in 10.0 mi Calm Calm - N/A   Overcast
8:05 AM 8.6 °F -1.3 °F - N/A% 30.24 in 10.0 mi South 5.8 mph - N/A   Mostly Cloudy
8:25 AM 8.6 °F 2.0 °F - N/A% 30.25 in 10.0 mi SSW 3.5 mph - N/A   Mostly Cloudy
8:45 AM 10.4 °F - - N/A% 30.26 in 10.0 mi Calm Calm - N/A   Mostly Cloudy
9:05 AM 10.4 °F - - N/A% 30.25 in 10.0 mi Calm Calm - N/A   Scattered Clouds
9:25 AM 10.4 °F - - N/A% 30.26 in 10.0 mi Calm Calm - N/A   Partly Cloudy
9:45 AM 10.4 °F - - N/A% 30.25 in 10.0 mi Calm Calm - N/A   Scattered Clouds
10:05 AM 12.2 °F - - N/A% 30.26 in 10.0 mi Calm Calm - N/A   Partly Cloudy
10:25 AM 12.2 °F 4.3 °F - N/A% 30.25 in 10.0 mi SSW 4.6 mph - N/A   Clear
10:45 AM 12.2 °F 6.1 °F - N/A% 30.25 in 10.0 mi SSW 3.5 mph - N/A   Clear
11:05 AM 14.0 °F 6.5 °F - N/A% 30.25 in 10.0 mi SSW 4.6 mph - N/A   Clear
11:25 AM 14.0 °F - - N/A% 30.24 in 10.0 mi Calm Calm - N/A   Clear
11:45 AM 14.0 °F 8.2 °F - N/A% 30.24 in 10.0 mi South 3.5 mph - N/A   Clear
12:05 PM 14.0 °F 2.9 °F - N/A% 30.23 in 10.0 mi SSW 8.1 mph - N/A   Clear
12:25 PM 15.8 °F 8.6 °F - N/A% 30.22 in 10.0 mi SW 4.6 mph - N/A   Clear
12:45 PM 15.8 °F 8.6 °F - N/A% 30.21 in 10.0 mi SW 4.6 mph - N/A   Clear
1:05 PM 15.8 °F 7.2 °F - N/A% 30.20 in 10.0 mi SW 5.8 mph - N/A   Clear
1:25 PM 15.8 °F 10.2 °F - N/A% 30.19 in 10.0 mi South 3.5 mph - N/A   Clear
1:45 PM 15.8 °F 10.2 °F - N/A% 30.18 in 10.0 mi East 3.5 mph - N/A   Clear
2:05 PM 15.8 °F 8.6 °F - N/A% 30.18 in 10.0 mi NE 4.6 mph - N/A   Clear
2:25 PM 15.8 °F 7.2 °F - N/A% 30.18 in 10.0 mi NE 5.8 mph - N/A   Clear
2:45 PM 15.8 °F 7.2 °F - N/A% 30.17 in 10.0 mi NE 5.8 mph - N/A   Clear
3:05 PM 15.8 °F 7.2 °F - N/A% 30.17 in 10.0 mi NE 5.8 mph - N/A   Clear
3:25 PM 15.8 °F 10.2 °F - N/A% 30.16 in 10.0 mi NNE 3.5 mph - N/A   Clear
3:45 PM 15.8 °F 7.2 °F - N/A% 30.16 in 10.0 mi NE 5.8 mph - N/A   Clear
4:05 PM 14.0 °F 6.5 °F - N/A% 30.16 in 10.0 mi NE 4.6 mph - N/A   Clear
4:25 PM 14.0 °F 6.5 °F - N/A% 30.17 in 10.0 mi NE 4.6 mph - N/A   Clear
4:45 PM 10.4 °F 4.0 °F - N/A% 30.16 in 10.0 mi East 3.5 mph - N/A   Clear
5:05 PM 10.4 °F - - N/A% 30.16 in 10.0 mi Calm Calm - N/A   Clear
5:25 PM 6.8 °F - - N/A% 30.16 in 10.0 mi Calm Calm - N/A   Clear
5:45 PM 5.0 °F - - N/A% 30.16 in 10.0 mi Calm Calm - N/A   Clear
6:05 PM 3.2 °F -6.2 °F - N/A% 30.15 in 10.0 mi SW 4.6 mph - N/A   Clear
6:25 PM 5.0 °F -2.1 °F - N/A% 30.15 in 10.0 mi South 3.5 mph - N/A   Scattered Clouds
6:45 PM 3.2 °F - - N/A% 30.16 in 10.0 mi Calm Calm - N/A   Partly Cloudy
7:05 PM -0.4 °F - - N/A% 30.16 in 10.0 mi Calm Calm - N/A   Clear
7:25 PM -0.4 °F - - N/A% 30.16 in 10.0 mi Calm Calm - N/A   Clear
7:45 PM -0.4 °F -8.3 °F - N/A% 30.15 in 10.0 mi South 3.5 mph - N/A   Clear
8:05 PM -0.4 °F - - N/A% 30.16 in 10.0 mi Calm Calm - N/A   Clear
8:25 PM -4.0 °F - - N/A% 30.16 in 10.0 mi Calm Calm - N/A   Clear
8:45 PM -4.0 °F - - N/A% 30.16 in 10.0 mi Calm Calm - N/A   Clear
9:05 PM -5.8 °F -16.7 °F - N/A% 30.16 in 10.0 mi SSW 4.6 mph - N/A   Clear
9:25 PM -4.0 °F - - N/A% 30.16 in 10.0 mi Calm Calm - N/A   Clear
9:45 PM -7.6 °F -18.8 °F - N/A% 30.16 in 10.0 mi South 4.6 mph - N/A   Clear
10:05 PM -7.6 °F - - N/A% 30.16 in 10.0 mi Calm Calm - N/A   Clear
10:25 PM -9.4 °F - - N/A% 30.16 in 10.0 mi Calm Calm - N/A   Clear
10:45 PM -5.8 °F - - N/A% 30.16 in 10.0 mi Calm Calm - N/A   Clear
11:05 PM -4.0 °F - - N/A% 30.15 in 10.0 mi Calm Calm - N/A   Clear
11:25 PM -7.6 °F - - N/A% 30.15 in 10.0 mi Calm Calm - N/A   Clear
11:45 PM -9.4 °F - - N/A% 30.16 in 10.0 mi Calm Calm - N/A   Clear